CGBZB CZBA-CYQS

Flight info

Callsign CGBZB
Flight time N/A
Altitude 12000
Route DCT
Aircraft BT36/L-SDE1FGHILORVWXY/C

Departure

Time 2026-04-25 01:47
Airport Burlington Executive Airpark (CZBA)

Arrival

Time N/A
Airport St Thomas Municipal Airport (CYQS)
Time Latitude Longitude Altitude Speed Heading
2026-04-25 01:15 43.44256 -79.85038 593 ft 0 kts 40°
2026-04-25 01:25 43.44256 -79.85039 596 ft 0 kts 40°
2026-04-25 01:27 43.44255 -79.85039 596 ft 0 kts 40°
2026-04-25 01:44 43.44257 -79.85036 594 ft 3 kts 69°
2026-04-25 01:44 43.44214 -79.85009 594 ft 9 kts 173°
2026-04-25 01:45 43.44167 -79.84968 595 ft 10 kts 130°
2026-04-25 01:45 43.44116 -79.84885 597 ft 12 kts 130°
2026-04-25 01:45 43.44054 -79.84784 593 ft 15 kts 129°
2026-04-25 01:45 43.43981 -79.84666 592 ft 17 kts 132°
2026-04-25 01:46 43.43904 -79.84540 591 ft 17 kts 130°
2026-04-25 01:46 43.43826 -79.84459 589 ft 12 kts 185°
2026-04-25 01:46 43.43838 -79.84527 590 ft 30 kts 312°
2026-04-25 01:46 43.44161 -79.85061 659 ft 102 kts 316°
2026-04-25 01:47 43.44637 -79.85889 1032 ft 116 kts 318°
2026-04-25 01:47 43.45161 -79.86745 1556 ft 122 kts 311°
2026-04-25 01:47 43.45328 -79.87993 2000 ft 142 kts 252°
2026-04-25 01:47 43.44778 -79.88989 2459 ft 125 kts 197°
2026-04-25 01:48 43.43996 -79.89321 2925 ft 114 kts 183°
2026-04-25 01:48 43.43197 -79.89528 3253 ft 122 kts 185°
2026-04-25 01:48 43.42359 -79.89887 3532 ft 131 kts 201°
2026-04-25 01:48 43.41579 -79.90591 3812 ft 137 kts 217°
2026-04-25 01:49 43.40900 -79.91518 4093 ft 138 kts 227°
2026-04-25 01:49 43.40287 -79.92529 4373 ft 137 kts 232°
2026-04-25 01:49 43.39709 -79.93551 4647 ft 137 kts 235°
2026-04-25 01:49 43.39144 -79.94595 4917 ft 136 kts 236°
2026-04-25 01:50 43.38588 -79.95644 5182 ft 136 kts 238°
2026-04-25 01:50 43.38035 -79.96694 5446 ft 135 kts 238°
2026-04-25 01:50 43.37484 -79.97744 5715 ft 135 kts 239°
2026-04-25 01:50 43.36933 -79.98797 5992 ft 135 kts 239°
2026-04-25 01:51 43.36381 -79.99847 6266 ft 136 kts 239°
2026-04-25 01:51 43.35831 -80.00900 6521 ft 136 kts 239°
2026-04-25 01:51 43.35285 -80.01939 6781 ft 136 kts 239°
2026-04-25 01:51 43.34729 -80.02998 7048 ft 137 kts 239°
2026-04-25 01:52 43.34174 -80.04058 7318 ft 137 kts 239°
2026-04-25 01:52 43.33615 -80.05122 7586 ft 137 kts 239°
2026-04-25 01:52 43.33053 -80.06189 7876 ft 138 kts 239°
2026-04-25 01:52 43.32492 -80.07259 8148 ft 138 kts 239°
2026-04-25 01:53 43.31924 -80.08337 8421 ft 139 kts 238°
2026-04-25 01:53 43.31357 -80.09416 8700 ft 139 kts 238°
2026-04-25 01:53 43.30787 -80.10498 8982 ft 140 kts 238°
2026-04-25 01:53 43.30224 -80.11569 9260 ft 140 kts 238°
2026-04-25 01:54 43.29650 -80.12658 9551 ft 141 kts 238°
2026-04-25 01:54 43.29074 -80.13750 9835 ft 142 kts 238°
2026-04-25 01:54 43.28494 -80.14850 10102 ft 142 kts 238°
2026-04-25 01:54 43.28099 -80.15599 10273 ft 142 kts 238°